Regional Weather Roundup
Issued by NWS

Home | Current Version | Previous Version | Text Only | Print | Product List | Glossary On
Versions: 1 2 3 4 5 6 7 8 9 10 11 12 13 14 15 16 17 18 19 20 21 22 23 24 25 26 27 28 29 30 31 32 33 34 35 36 37 38 39 40 41 42 43 44 45 46 47 48 49 50
000
ASUS43 KLOT 152209
RWRIL

ILLINOIS REGIONAL WEATHER ROUNDUP
NATIONAL WEATHER SERVICE CHICAGO/ROMEOVILLE IL
500 PM CDT MON JUL 15 2019

NOTE: "FAIR" INDICATES FEW OR NO CLOUDS BELOW 12,000 FEET WITH NO
SIGNIFICANT WEATHER AND/OR OBSTRUCTIONS TO VISIBILITY.

* THESE STATIONS ARE NOT UNDER NWS QUALITY CONTROL. THEY ALSO MAY NOT
  REPORT WEATHER SUCH AS PRECIPITATION OR FOG.

ILZ001-002-007-009-015-016-024-152300-
NORTHWEST ILLINOIS

CITY           SKY/WX    TMP DP  RH WIND       PRES   REMARKS
MOLINE         PTSUNNY   85  68  56 S15G23    29.97S HX  88
STERLING*      CLOUDY    87  71  58 VRB7      29.98F HX  93
SAVANNA*       FAIR      88  68  51 SW13G21   29.95F HX  91
$$

ILZ003-004-008-010-011-017-018-152300-
NORTH CENTRAL ILLINOIS

CITY           SKY/WX    TMP DP  RH WIND       PRES   REMARKS
ROCKFORD       FAIR      89  66  46 S16G29    29.96F HX  91
FREEPORT*      FAIR      86  67  52 SW21      29.98F HX  88
ROCHELLE*      PTSUNNY   86  68  55 SW18G24   29.99F HX  89
DE KALB*       PTSUNNY   87  68  53 SW24      29.99F HX  90
PERU*          PTSUNNY   84  65  53 S21G28    30.00F HX  86
$$

ILZ005-006-012>014-019>023-152300-
NORTHEAST ILLINOIS

CITY           SKY/WX    TMP DP  RH WIND       PRES   REMARKS
CHICAGO-OHARE  FAIR      91  63  39 SW18G32   29.96F HX  92
CHICAGO-MIDWAY FAIR      91  66  43 SW18G29   29.97F HX  93
AURORA         FAIR      87  67  51 S15G30    29.98F HX  90
LANSING*       PTSUNNY   86  67  51 SW15G26   29.99F HX  89
JOLIET*        FAIR      88  66  48 S10G24    30.00R HX  90
WAUKEGAN       FAIR      88  64  44 SW22G31   29.94F HX  89
DUPAGE AIRPORT FAIR      89  67  47 S17G28    29.97F HX  92
KANKAKEE*      FAIR      85  64  47 SW12G20   30.02F HX  86
WHEELING       FAIR      93  62  35 SW17G30   29.96F HX  93
MORRIS*        FAIR      87  65  47 SW14G24   29.98S HX  88
ROMEOVILLE*    FAIR      88  66  47 SW21G26   29.99S HX  90
NORTHERLY ISL    N/A     89  59  36 S20         N/A  HX  88
$$

LMZ740>746-152300-
SOUTHERN LAKE MICHIGAN

STATION/POSITION SKY/WX   TEMP    WIND        PRES    VSBY  WAVE
                          AIR SEA DIR/SP/G                  HT/PER
                          (F)     (DEG/KT/KT) (MB)    (MI)  (FT/S)
SOUTHERN BUOY              73 69  200/  8/ 10 1014.3F         1/ 3
WINTHROP HARBOR            82 71  220/ 14/ 19   N/A           1/ 2
WAUKEGAN HARBOR            81 69  190/ 12/ 16   N/A           1/ 3
WILMETTE HARBOR            60     210/ 16/ 21 1014.5          2/ 3
HARRISON CRIB              86     200/ 25/ 27   N/A
NORTHERLY ISL              89     200/ 19/ 22   N/A
CALUMET HARBOR             88     200/ 14/ 25 1014.7F
BURNS HARBOR               88     210/ 10/ 14 1015.9F
MICHIGAN CITY              87     210/ 17/ 20   N/A
MICHIGAN CITY 6N           83 76  210/ 14/ 16   N/A           2/ 3
ST. JOSEPH                 81 76  270/  8/ 10 1014.7          1
$$

ILZ025>027-034>036-040-047-049-050-058-095>099-152300-
WEST-CENTRAL ILLINOIS

CITY           SKY/WX    TMP DP  RH WIND       PRES   REMARKS
QUINCY         PTSUNNY   76  65  68 SE17      29.99F
GALESBURG*     FAIR      82  65  57 SE17G25   30.00F HX  84
MACOMB*        PTSUNNY   80  67  63 S16G26    30.02F HX  82
JACKSONVILLE*  CLOUDY    74  68  80 SE18G28   29.98F
PITTSFIELD*    CLOUDY    73  71  95 SE15G22   29.99F
$$

ILZ028>032-037-038-041>044-048-051>054-059>061-152300-
CENTRAL ILLINOIS

CITY           SKY/WX    TMP DP  RH WIND       PRES   REMARKS
PONTIAC        FAIR      85  64  48 S20G31    30.02F HX  86
BLOOMINGTON    FAIR      80  65  59 S22G31    30.04F HX  82
DECATUR        LGT RAIN  74  69  85 SE13      30.03F
PEORIA         FAIR      81  64  56 S21G33    30.02F HX  82
LACON*         PTSUNNY   82  67  60 SW12G22   30.00S HX  85
LINCOLN*       FAIR      79  67  66 S16G28    30.02F HX  81
SPRINGFIELD    CLOUDY    76  69  79 SE16G24   30.00F
TAYLORVILLE    PTSUNNY   74  70  87 SE10      30.01F
$$

ILZ033-039-045-046-055>057-062-063-152300-
EAST-CENTRAL ILLINOIS

CITY           SKY/WX    TMP DP  RH WIND       PRES   REMARKS
CHAMPAIGN      FAIR      78  67  68 S10       30.05F HX  80
DANVILLE*      FAIR      81  71  71 S15       30.04F HX  85
RANTOUL*       FAIR      82  66  58 S14G20    30.04F HX  84
MATTOON        FAIR      75  70  84 S9        30.04F
PARIS*         FAIR      78  70  76 S7        30.07F HX  81
$$

ILZ079-100>102-152300-
SOUTHWEST ILLINOIS

CITY           SKY/WX    TMP DP  RH WIND       PRES   REMARKS
ALTON          LGT RAIN  70  70 100 E14       29.98F FOG
BELLEVILLE     CLOUDY    72  70  94 SE15      29.95F
CAHOKIA*       CLOUDY    72  70  93 SE15G22   29.94F FOG
$$

ILZ064>066-069>071-074>076-080>082-084>086-088>090-092>094-152300-
SOUTH-CENTRAL ILLINOIS

CITY           SKY/WX    TMP DP  RH WIND       PRES   REMARKS
CARBONDALE     LGT RAIN  74  72  93 E7        29.96F FOG
CAIRO*         CLOUDY    76  74  96 SE15      29.95F
EFFINGHAM*     LGT RAIN  73  67  82 E7        30.04F
MARION         CLOUDY    73  72  94 SE12      29.98F
MT. VERNON     CLOUDY    73  69  87 E8        30.00F
CENTRALIA*     CLOUDY    74  68  82 SE15G24   29.99F
SALEM*         CLOUDY    75  70  84 SE10G20   30.00F
METROPOLIS*    CLOUDY    79  72  80 S8        29.98F HX  82
$$

ILZ067-068-072-073-078-083-087-091-152300-
SOUTHEAST ILLINOIS

CITY           SKY/WX    TMP DP  RH WIND       PRES   REMARKS
LAWRENCEVILLE  CLOUDY    78  71  79 E9        30.04F HX  80
FLORA*         CLOUDY    75  69  82 SE9       30.02F
FAIRFIELD*     CLOUDY    76  69  77 E7        30.00F
HARRISBURG*    CLOUDY    76  71  83 E8        30.00F
ROBINSON*      FAIR      77  70  78 S6        30.06F
CARMI*         FAIR      79  72  78 E9        30.01F HX  82
$$

ABBREVIATIONS USED IN REMARKS
   TC - TEMPERATURE IN CELSIUS
  WCI - WIND CHILL INDEX
   HX - HEAT INDEX
  VSB - VISIBILITY
$$




USA.gov is the U.S. government's official web portal to all federal, state and local government web resources and services.